Time,TemperatureF,DewpointF,PressureIn,WindDirection,WindDirectionDegrees,WindSpeedMPH,WindSpeedGustMPH,Humidity,HourlyPrecipIn,Conditions,Clouds,dailyrainin,SoftwareType,DateUTC
2013-03-13 00:02:00,27.0,22.0,-100.00,NW,325,17.0,26.0,81,0.00,,,-99.99,,2013-03-13 05:02:00,
2013-03-13 00:12:00,26.0,21.0,-100.00,NNW,330,11.0,23.0,81,0.00,,,-99.99,,2013-03-13 05:12:00,
2013-03-13 00:22:00,26.0,21.0,-100.00,NW,320,16.0,22.0,80,0.00,,,-99.99,,2013-03-13 05:22:00,
2013-03-13 00:32:00,26.0,21.0,-100.00,NNW,330,16.0,26.0,79,0.00,,,-99.99,,2013-03-13 05:32:00,
2013-03-13 00:42:00,26.0,21.0,-100.00,NNW,335,16.0,24.0,79,0.00,,,-99.99,,2013-03-13 05:42:00,
2013-03-13 00:52:00,26.0,22.0,-100.00,NNW,335,12.0,23.0,85,0.00,,,-99.99,,2013-03-13 05:52:00,
2013-03-13 01:02:00,26.0,22.0,-100.00,NNW,335,12.0,26.0,84,0.00,,,-99.99,,2013-03-13 06:02:00,
2013-03-13 01:12:00,26.0,21.0,-100.00,NNW,345,15.0,26.0,80,0.00,,,-99.99,,2013-03-13 06:12:00,
2013-03-13 01:22:00,26.0,21.0,-100.00,NNW,330,12.0,20.0,80,0.00,,,-99.99,,2013-03-13 06:22:00,
2013-03-13 01:32:00,26.0,21.0,-100.00,NNW,335,12.0,24.0,82,0.00,,,-99.99,,2013-03-13 06:32:00,
2013-03-13 01:42:00,26.0,20.0,-100.00,North,5,10.0,22.0,78,0.00,,,-99.99,,2013-03-13 06:42:00,
2013-03-13 01:52:00,26.0,20.0,-100.00,NNW,330,12.0,22.0,79,0.00,,,-99.99,,2013-03-13 06:52:00,
2013-03-13 02:02:00,25.0,19.0,-100.00,NNW,330,14.0,25.0,80,0.00,,,-99.99,,2013-03-13 07:02:00,
2013-03-13 02:12:00,24.0,19.0,-100.00,NW,325,16.0,24.0,80,0.00,,,-99.99,,2013-03-13 07:12:00,
2013-03-13 02:22:00,24.0,19.0,-100.00,NNW,330,17.0,26.0,80,0.00,,,-99.99,,2013-03-13 07:22:00,
2013-03-13 02:32:00,24.0,19.0,-100.00,NW,325,12.0,24.0,81,0.00,,,-99.99,,2013-03-13 07:32:00,
2013-03-13 02:42:00,24.0,19.0,-100.00,NNW,335,15.0,21.0,82,0.00,,,-99.99,,2013-03-13 07:42:00,
2013-03-13 02:52:00,24.0,19.0,-100.00,NNW,340,9.0,19.0,84,0.00,,,-99.99,,2013-03-13 07:52:00,
2013-03-13 03:03:00,23.0,19.0,-100.00,NW,325,11.0,19.0,84,0.00,,,-99.99,,2013-03-13 08:03:00,
2013-03-13 03:12:00,23.0,20.0,-100.00,NNW,330,14.0,21.0,85,0.00,,,-99.99,,2013-03-13 08:12:00,
2013-03-13 03:22:00,23.0,20.0,-100.00,NNW,340,11.0,21.0,86,0.00,,,-99.99,,2013-03-13 08:22:00,
2013-03-13 03:32:00,23.0,19.0,-100.00,NNW,330,14.0,21.0,85,0.00,,,-99.99,,2013-03-13 08:32:00,
2013-03-13 03:43:00,23.0,19.0,-100.00,NNW,335,18.0,26.0,85,0.00,,,-99.99,,2013-03-13 08:43:00,
2013-03-13 03:52:00,22.0,20.0,-100.00,NNW,335,9.0,17.0,89,0.00,,,-99.99,,2013-03-13 08:52:00,
2013-03-13 04:02:00,22.0,20.0,-100.00,NNW,335,9.0,17.0,89,0.00,,,-99.99,,2013-03-13 09:02:00,
2013-03-13 04:12:00,22.0,20.0,-100.00,NNW,340,8.0,17.0,90,0.00,,,-99.99,,2013-03-13 09:12:00,
2013-03-13 04:22:00,22.0,20.0,-100.00,NNW,340,12.0,19.0,89,0.00,,,-99.99,,2013-03-13 09:22:00,
2013-03-13 04:32:00,22.0,20.0,-100.00,NNW,335,10.0,17.0,91,0.00,,,-99.99,,2013-03-13 09:32:00,
2013-03-13 04:42:00,22.0,19.0,-100.00,NNW,345,14.0,19.0,89,0.00,,,-99.99,,2013-03-13 09:42:00,
2013-03-13 04:52:00,22.0,20.0,-100.00,NNW,335,9.0,17.0,91,0.00,,,-99.99,,2013-03-13 09:52:00,
2013-03-13 05:02:00,22.0,20.0,-100.00,NNW,335,12.0,18.0,92,0.00,,,-99.99,,2013-03-13 10:02:00,
2013-03-13 05:12:00,21.0,20.0,-100.00,North,350,7.0,17.0,92,0.00,,,-99.99,,2013-03-13 10:12:00,
2013-03-13 05:22:00,21.0,20.0,-100.00,NNW,330,10.0,18.0,92,0.00,,,-99.99,,2013-03-13 10:22:00,
2013-03-13 05:32:00,21.0,19.0,-100.00,NNW,340,13.0,20.0,92,0.00,,,-99.99,,2013-03-13 10:32:00,
2013-03-13 05:42:00,21.0,19.0,-100.00,NW,325,11.0,19.0,93,0.00,,,-99.99,,2013-03-13 10:42:00,
2013-03-13 05:52:00,21.0,19.0,-100.00,NNW,335,10.0,19.0,93,0.00,,,-99.99,,2013-03-13 10:52:00,
2013-03-13 06:02:00,21.0,19.0,-100.00,NNW,335,11.0,17.0,94,0.00,,,-99.99,,2013-03-13 11:02:00,
2013-03-13 06:12:00,21.0,19.0,-100.00,NNW,335,11.0,17.0,94,0.00,,,-99.99,,2013-03-13 11:12:00,
2013-03-13 06:22:00,20.0,19.0,-100.00,NNW,340,8.0,17.0,94,0.00,,,-99.99,,2013-03-13 11:22:00,
2013-03-13 06:32:00,20.0,19.0,-100.00,NNW,335,11.0,16.0,95,0.00,,,-99.99,,2013-03-13 11:32:00,
2013-03-13 06:42:00,20.0,19.0,-100.00,NNW,335,12.0,17.0,94,0.00,,,-99.99,,2013-03-13 11:42:00,
2013-03-13 06:52:00,20.0,19.0,-100.00,NNW,330,10.0,19.0,95,0.00,,,-99.99,,2013-03-13 11:52:00,
2013-03-13 07:02:00,20.0,19.0,-100.00,NNW,330,9.0,16.0,95,0.00,,,-99.99,,2013-03-13 12:02:00,
2013-03-13 07:12:00,20.0,19.0,-100.00,NNW,330,9.0,16.0,95,0.00,,,-99.99,,2013-03-13 12:12:00,
2013-03-13 07:22:00,20.0,19.0,-100.00,NNW,330,11.0,14.0,95,0.00,,,-99.99,,2013-03-13 12:22:00,
2013-03-13 07:32:00,20.0,19.0,-100.00,NNW,330,8.0,17.0,95,0.00,,,-99.99,,2013-03-13 12:32:00,
2013-03-13 07:42:00,20.0,19.0,-100.00,NNW,335,9.0,17.0,95,0.00,,,-99.99,,2013-03-13 12:42:00,
2013-03-13 07:53:00,20.0,18.0,-100.00,NNW,340,10.0,16.0,95,0.00,,,-99.99,,2013-03-13 12:53:00,
2013-03-13 08:02:00,20.0,18.0,-100.00,NNW,340,10.0,16.0,95,0.00,,,-99.99,,2013-03-13 13:02:00,
2013-03-13 08:11:00,20.0,19.0,-100.00,NNW,340,7.0,16.0,95,0.00,,,-99.99,,2013-03-13 13:11:00,
2013-03-13 08:22:00,20.0,19.0,-100.00,NNW,340,7.0,14.0,95,0.00,,,-99.99,,2013-03-13 13:22:00,
2013-03-13 08:33:00,21.0,19.0,-100.00,NW,325,8.0,12.0,95,0.00,,,-99.99,,2013-03-13 13:33:00,
2013-03-13 08:42:00,21.0,20.0,-100.00,NW,320,8.0,14.0,94,0.00,,,-99.99,,2013-03-13 13:42:00,
2013-03-13 08:52:00,21.0,20.0,-100.00,NW,320,10.0,16.0,94,0.00,,,-99.99,,2013-03-13 13:52:00,
2013-03-13 09:02:00,21.0,19.0,-100.00,NW,325,11.0,17.0,91,0.00,,,-99.99,,2013-03-13 14:02:00,
2013-03-13 09:12:00,22.0,20.0,-100.00,NNW,335,9.0,16.0,91,0.00,,,-99.99,,2013-03-13 14:12:00,
2013-03-13 09:21:00,22.0,20.0,-100.00,NNW,345,10.0,17.0,89,0.00,,,-99.99,,2013-03-13 14:21:00,
2013-03-13 09:33:00,22.0,19.0,-100.00,NNW,340,11.0,17.0,88,0.00,,,-99.99,,2013-03-13 14:33:00,
2013-03-13 09:42:00,22.0,19.0,-100.00,NNW,340,11.0,17.0,88,0.00,,,-99.99,,2013-03-13 14:42:00,
2013-03-13 09:52:00,23.0,20.0,-100.00,NNW,330,9.0,16.0,87,0.00,,,-99.99,,2013-03-13 14:52:00,
2013-03-13 10:03:00,23.0,20.0,-100.00,NNW,330,9.0,16.0,87,0.00,,,-99.99,,2013-03-13 15:03:00,
2013-03-13 10:12:00,23.0,20.0,-100.00,NNW,330,10.0,17.0,85,0.00,,,-99.99,,2013-03-13 15:12:00,
2013-03-13 10:22:00,24.0,20.0,-100.00,NNW,330,7.0,19.0,84,0.00,,,-99.99,,2013-03-13 15:22:00,
2013-03-13 10:32:00,25.0,20.0,-100.00,NNW,340,8.0,16.0,82,0.00,,,-99.99,,2013-03-13 15:32:00,
2013-03-13 10:42:00,26.0,21.0,-100.00,North,5,7.0,13.0,80,0.00,,,-99.99,,2013-03-13 15:42:00,
2013-03-13 10:52:00,27.0,20.0,-100.00,NNW,330,10.0,14.0,77,0.00,,,-99.99,,2013-03-13 15:52:00,
2013-03-13 11:02:00,27.0,21.0,-100.00,North,350,6.0,12.0,76,0.00,,,-99.99,,2013-03-13 16:02:00,
2013-03-13 11:12:00,27.0,21.0,-100.00,NNW,340,6.0,17.0,75,0.00,,,-99.99,,2013-03-13 16:12:00,
2013-03-13 11:22:00,27.0,21.0,-100.00,NW,315,7.0,12.0,75,0.00,,,-99.99,,2013-03-13 16:22:00,
2013-03-13 11:32:00,28.0,20.0,-100.00,NNE,15,7.0,14.0,73,0.00,,,-99.99,,2013-03-13 16:32:00,
2013-03-13 11:42:00,28.0,20.0,-100.00,North,10,7.0,12.0,72,0.00,,,-99.99,,2013-03-13 16:42:00,
2013-03-13 11:52:00,28.0,20.0,-100.00,North,10,7.0,12.0,72,0.00,,,-99.99,,2013-03-13 16:52:00,
2013-03-13 12:02:00,28.0,20.0,-100.00,North,10,7.0,12.0,72,0.00,,,-99.99,,2013-03-13 17:02:00,
2013-03-13 12:12:00,29.0,20.0,-100.00,NW,315,9.0,16.0,67,0.00,,,-99.99,,2013-03-13 17:12:00,
2013-03-13 12:22:00,29.0,19.0,-100.00,North,0,7.0,16.0,65,0.00,,,-99.99,,2013-03-13 17:22:00,
2013-03-13 12:32:00,29.0,20.0,-100.00,NNE,15,9.0,17.0,67,0.00,,,-99.99,,2013-03-13 17:32:00,
2013-03-13 12:42:00,30.0,19.0,-100.00,NNW,330,12.0,17.0,63,0.00,,,-99.99,,2013-03-13 17:42:00,
2013-03-13 12:53:00,30.0,19.0,-100.00,NNE,15,10.0,16.0,62,0.00,,,-99.99,,2013-03-13 17:53:00,
2013-03-13 13:02:00,30.0,19.0,-100.00,NNE,15,10.0,16.0,62,0.00,,,-99.99,,2013-03-13 18:02:00,
2013-03-13 13:12:00,30.0,20.0,-100.00,North,5,9.0,13.0,64,0.00,,,-99.99,,2013-03-13 18:12:00,
2013-03-13 13:22:00,31.0,20.0,-100.00,NNW,330,8.0,16.0,62,0.00,,,-99.99,,2013-03-13 18:22:00,
2013-03-13 13:33:00,31.0,20.0,-100.00,NW,320,9.0,18.0,62,0.00,,,-99.99,,2013-03-13 18:33:00,
2013-03-13 13:42:00,31.0,20.0,-100.00,NW,320,9.0,18.0,62,0.00,,,-99.99,,2013-03-13 18:42:00,
2013-03-13 13:52:00,32.0,19.0,-100.00,North,10,7.0,12.0,57,0.00,,,-99.99,,2013-03-13 18:52:00,
2013-03-13 14:02:00,32.0,18.0,-100.00,NNW,330,7.0,14.0,57,0.00,,,-99.99,,2013-03-13 19:02:00,
2013-03-13 14:12:00,33.0,20.0,-100.00,NNE,20,8.0,14.0,57,0.00,,,-99.99,,2013-03-13 19:12:00,
2013-03-13 14:22:00,33.0,18.0,-100.00,NNW,330,10.0,14.0,54,0.00,,,-99.99,,2013-03-13 19:22:00,
2013-03-13 14:32:00,34.0,21.0,-100.00,NW,320,6.0,14.0,58,0.00,,,-99.99,,2013-03-13 19:32:00,
2013-03-13 14:43:00,34.0,21.0,-100.00,NW,320,6.0,14.0,58,0.00,,,-99.99,,2013-03-13 19:43:00,
2013-03-13 14:52:00,33.0,18.0,-100.00,North,5,11.0,15.0,52,0.00,,,-99.99,,2013-03-13 19:52:00,
2013-03-13 15:02:00,33.0,18.0,-100.00,North,5,11.0,15.0,52,0.00,,,-99.99,,2013-03-13 20:02:00,
2013-03-13 15:12:00,34.0,18.0,-100.00,NNE,25,6.0,15.0,51,0.00,,,-99.99,,2013-03-13 20:12:00,
2013-03-13 15:22:00,34.0,18.0,-100.00,NNE,20,11.0,17.0,50,0.00,,,-99.99,,2013-03-13 20:22:00,
2013-03-13 15:32:00,34.0,18.0,-100.00,NNE,15,7.0,12.0,51,0.00,,,-99.99,,2013-03-13 20:32:00,
2013-03-13 15:42:00,36.0,19.0,-100.00,NNE,15,7.0,13.0,50,0.00,,,-99.99,,2013-03-13 20:42:00,
2013-03-13 15:52:00,35.0,17.0,-100.00,NNE,20,8.0,12.0,48,0.00,,,-99.99,,2013-03-13 20:52:00,
2013-03-13 16:02:00,35.0,19.0,-100.00,NNE,20,6.0,14.0,51,0.00,,,-99.99,,2013-03-13 21:02:00,
2013-03-13 16:12:00,34.0,15.0,-100.00,North,10,11.0,12.0,45,0.00,,,-99.99,,2013-03-13 21:12:00,
2013-03-13 16:22:00,35.0,19.0,-100.00,North,350,6.0,12.0,51,0.00,,,-99.99,,2013-03-13 21:22:00,
2013-03-13 16:33:00,35.0,18.0,-100.00,NNE,20,6.0,12.0,49,0.00,,,-99.99,,2013-03-13 21:33:00,
2013-03-13 16:42:00,35.0,18.0,-100.00,North,10,7.0,12.0,50,0.00,,,-99.99,,2013-03-13 21:42:00,
2013-03-13 16:52:00,35.0,18.0,-100.00,NNE,20,8.0,11.0,48,0.00,,,-99.99,,2013-03-13 21:52:00,
2013-03-13 17:02:00,35.0,17.0,-100.00,North,10,7.0,12.0,47,0.00,,,-99.99,,2013-03-13 22:02:00,
2013-03-13 17:12:00,36.0,18.0,-100.00,NNE,25,4.0,10.0,49,0.00,,,-99.99,,2013-03-13 22:12:00,
2013-03-13 17:22:00,36.0,17.0,-100.00,NNE,20,5.0,10.0,45,0.00,,,-99.99,,2013-03-13 22:22:00,
2013-03-13 17:32:00,36.0,17.0,-100.00,NNW,340,4.0,9.0,45,0.00,,,-99.99,,2013-03-13 22:32:00,
2013-03-13 17:42:00,36.0,18.0,-100.00,NW,325,3.0,9.0,46,0.00,,,-99.99,,2013-03-13 22:42:00,
2013-03-13 17:52:00,36.0,18.0,-100.00,NNE,15,4.0,9.0,48,0.00,,,-99.99,,2013-03-13 22:52:00,
2013-03-13 18:02:00,36.0,18.0,-100.00,NNE,15,4.0,9.0,48,0.00,,,-99.99,,2013-03-13 23:02:00,
2013-03-13 18:12:00,35.0,17.0,-100.00,NNE,30,6.0,8.0,47,0.00,,,-99.99,,2013-03-13 23:12:00,
2013-03-13 18:22:00,36.0,18.0,-100.00,North,10,3.0,6.0,48,0.00,,,-99.99,,2013-03-13 23:22:00,
2013-03-13 18:32:00,35.0,18.0,-100.00,NNE,15,3.0,7.0,49,0.00,,,-99.99,,2013-03-13 23:32:00,
2013-03-13 18:42:00,35.0,18.0,-100.00,North,350,3.0,7.0,49,0.00,,,-99.99,,2013-03-13 23:42:00,
2013-03-13 18:52:00,35.0,18.0,-100.00,NNW,345,2.0,6.0,50,0.00,,,-99.99,,2013-03-13 23:52:00,
2013-03-13 19:02:00,35.0,17.0,-100.00,North,10,6.0,7.0,48,0.00,,,-99.99,,2013-03-14 00:02:00,
2013-03-13 19:12:00,34.0,18.0,-100.00,NNW,335,2.0,7.0,51,0.00,,,-99.99,,2013-03-14 00:12:00,
2013-03-13 19:22:00,33.0,18.0,-100.00,North,5,4.0,6.0,52,0.00,,,-99.99,,2013-03-14 00:22:00,
2013-03-13 19:32:00,33.0,18.0,-100.00,NNW,340,3.0,6.0,52,0.00,,,-99.99,,2013-03-14 00:32:00,
2013-03-13 19:42:00,33.0,18.0,-100.00,NE,50,1.0,6.0,53,0.00,,,-99.99,,2013-03-14 00:42:00,
2013-03-13 19:52:00,33.0,18.0,-100.00,East,85,2.0,3.0,52,0.00,,,-99.99,,2013-03-14 00:52:00,
2013-03-13 20:02:00,33.0,18.0,-100.00,East,85,2.0,3.0,52,0.00,,,-99.99,,2013-03-14 01:02:00,
2013-03-13 20:12:00,32.0,20.0,-100.00,East,95,2.0,3.0,59,0.00,,,-99.99,,2013-03-14 01:12:00,
2013-03-13 20:22:00,32.0,20.0,-100.00,ESE,105,2.0,3.0,61,0.00,,,-99.99,,2013-03-14 01:22:00,
2013-03-13 20:32:00,31.0,20.0,-100.00,East,85,1.0,1.0,61,0.00,,,-99.99,,2013-03-14 01:32:00,
2013-03-13 20:42:00,31.0,20.0,-100.00,East,85,1.0,1.0,61,0.00,,,-99.99,,2013-03-14 01:42:00,
2013-03-13 20:52:00,31.0,20.0,-100.00,SE,130,2.0,3.0,65,0.00,,,-99.99,,2013-03-14 01:52:00,
2013-03-13 21:02:00,30.0,20.0,-100.00,SE,140,2.0,3.0,67,0.00,,,-99.99,,2013-03-14 02:02:00,
2013-03-13 21:12:00,30.0,22.0,-100.00,SE,140,1.0,3.0,70,0.00,,,-99.99,,2013-03-14 02:12:00,
2013-03-13 21:22:00,30.0,24.0,-100.00,SE,140,1.0,2.0,76,0.00,,,-99.99,,2013-03-14 02:22:00,
2013-03-13 21:32:00,30.0,24.0,-100.00,SE,140,1.0,2.0,76,0.00,,,-99.99,,2013-03-14 02:32:00,
2013-03-13 21:42:00,30.0,24.0,-100.00,SE,140,1.0,2.0,76,0.00,,,-99.99,,2013-03-14 02:42:00,
2013-03-13 21:51:00,30.0,24.0,-100.00,SE,140,1.0,2.0,76,0.00,,,-99.99,,2013-03-14 02:51:00,
2013-03-13 22:02:00,28.0,27.0,-100.00,SE,140,1.0,2.0,95,0.00,,,-99.99,,2013-03-14 03:02:00,
2013-03-13 22:12:00,28.0,27.0,-100.00,SE,145,2.0,2.0,95,0.00,,,-99.99,,2013-03-14 03:12:00,
2013-03-13 22:22:00,28.0,27.0,-100.00,ESE,120,2.0,2.0,95,0.00,,,-99.99,,2013-03-14 03:22:00,
2013-03-13 22:32:00,28.0,27.0,-100.00,SE,135,1.0,2.0,95,0.00,,,-99.99,,2013-03-14 03:32:00,
2013-03-13 22:42:00,28.0,27.0,-100.00,SE,135,1.0,2.0,95,0.00,,,-99.99,,2013-03-14 03:42:00,
2013-03-13 22:52:00,27.0,26.0,-100.00,ESE,110,1.0,1.0,95,0.00,,,-99.99,,2013-03-14 03:52:00,
2013-03-13 23:12:00,27.0,26.0,-100.00,SE,130,2.0,2.0,95,0.00,,,-99.99,,2013-03-14 04:12:00,
2013-03-13 23:22:00,27.0,26.0,-100.00,SE,125,1.0,2.0,95,0.00,,,-99.99,,2013-03-14 04:22:00,
2013-03-13 23:32:00,27.0,26.0,-100.00,SSE,155,2.0,2.0,95,0.00,,,-99.99,,2013-03-14 04:32:00,
2013-03-13 23:42:00,27.0,26.0,-100.00,SE,140,1.0,2.0,95,0.00,,,-99.99,,2013-03-14 04:42:00,
2013-03-13 23:52:00,27.0,26.0,-100.00,SE,135,1.0,2.0,95,0.00,,,-99.99,,2013-03-14 04:52:00,